Normandy, TN

6:02 PM CST on February 23, 2017 (GMT -0600)
Tullahoma Regional-Northern

Weather History for KTHA - January, 2014

Change the Weather History Date:

Tuesday, January 28, 2014

  Actual Average Record
Temperature  
Mean Temperature 12 °F -  
Max Temperature 17 °F 50 °F 57 °F (2013)
Min Temperature 6 °F 29 °F 6 °F (2014)
Degree Days  
Heating Degree Days 54    
Moisture  
Dew Point 0 °F    
Average Humidity 58    
Maximum Humidity 79    
Minimum Humidity 45    
Precipitation  
Precipitation 0.00 in - - ()
Sea Level Pressure  
Sea Level Pressure 30.29 in    
Wind  
Wind Speed 10 mph (North)    
Max Wind Speed 16 mph    
Max Gust Speed -    
Visibility 10 miles    
Events      
Averages and records for this station are not official NWS values.
T = Trace of Precipitation, MM = Missing Value Source: NWS Daily Summary

Daily Weather History Graph

Daily Weather History Graph

Search for Another Location

Airport or City:

Trip Planner

Search our weather history database for the weather conditions in past years. The results will help you decide how hot, cold, wet, or windy it might be!

Date:

Astronomy

Jan. 28, 2014 Rise Set
Actual Time 6:47 AM CST 5:09 PM CST
Civil Twilight 6:20 AM CST 5:35 PM CST
Nautical Twilight 5:49 AM CST 6:06 PM CST
Astronomical Twilight 5:19 AM CST 6:36 PM CST
Moon 4:26 AM CST (1/28) 2:59 PM CST (1/28)
Length of Visible Light 11h 15m
Length of Day
10h 21m
Waning Crescent, 7% of the Moon is Illuminated
Jan 28
Waning Crescent
Jan 30
New
Feb 6
First Quarter
Feb 14
Full
Feb 22
Last Quarter

Hourly Weather History & Observations

Time (CST) Temp. Windchill Dew Point Humidity Pressure Visibility Wind Dir Wind Speed Gust Speed Precip Events Conditions
12:35 AM 14.0 °F 1.2 °F -2.2 °F 49% 30.28 in 10.0 mi North 10.4 mph - N/A   Clear
12:55 AM 14.0 °F 1.2 °F -2.2 °F 49% 30.28 in 10.0 mi North 10.4 mph - N/A   Clear
1:15 AM 14.0 °F -0.8 °F -2.2 °F 49% 30.27 in 10.0 mi North 13.8 mph - N/A   Scattered Clouds
1:35 AM 14.0 °F -0.2 °F -2.2 °F 49% 30.28 in 10.0 mi North 12.7 mph - N/A   Overcast
1:55 AM 14.0 °F -2.0 °F -2.2 °F 49% 30.27 in 10.0 mi NNE 16.1 mph - N/A   Overcast
2:15 AM 14.0 °F -2.0 °F -2.2 °F 49% 30.27 in 10.0 mi NNE 16.1 mph - N/A   Overcast
2:35 AM 14.0 °F -0.2 °F -2.2 °F 49% 30.27 in 10.0 mi North 12.7 mph - N/A   Overcast
2:55 AM 14.0 °F -0.2 °F -2.2 °F 49% 30.27 in 10.0 mi North 12.7 mph - N/A   Overcast
3:15 AM 14.0 °F 1.2 °F -2.2 °F 49% 30.27 in 10.0 mi NNE 10.4 mph - N/A   Overcast
3:35 AM 14.0 °F 0.5 °F -2.2 °F 49% 30.28 in 10.0 mi NNE 11.5 mph - N/A   Overcast
3:55 AM 14.0 °F -0.2 °F -2.2 °F 49% 30.28 in 10.0 mi North 12.7 mph - N/A   Overcast
4:15 AM 14.0 °F 0.5 °F -2.2 °F 49% 30.28 in 10.0 mi North 11.5 mph - N/A   Overcast
4:35 AM 14.0 °F 2.0 °F -2.2 °F 49% 30.28 in 10.0 mi North 9.2 mph - N/A   Overcast
4:55 AM 14.0 °F 1.2 °F -2.2 °F 49% 30.27 in 10.0 mi North 10.4 mph - N/A   Overcast
5:15 AM 14.0 °F 2.9 °F -2.2 °F 49% 30.28 in 10.0 mi North 8.1 mph - N/A   Mostly Cloudy
5:35 AM 14.0 °F 1.2 °F -2.2 °F 49% 30.28 in 10.0 mi North 10.4 mph - N/A   Partly Cloudy
5:55 AM 12.2 °F -1.8 °F -2.2 °F 53% 30.28 in 10.0 mi NNE 11.5 mph - N/A   Mostly Cloudy
6:15 AM 12.2 °F -1.0 °F -2.2 °F 53% 30.28 in 10.0 mi North 10.4 mph - N/A   Mostly Cloudy
6:35 AM 12.2 °F -1.8 °F -0.4 °F 57% 30.29 in 10.0 mi North 11.5 mph - N/A   Scattered Clouds
6:55 AM 12.2 °F -1.8 °F -0.4 °F 57% 30.30 in 10.0 mi North 11.5 mph - N/A   Unknown
7:15 AM 12.2 °F -1.8 °F 1.4 °F 62% 30.29 in 10.0 mi North 11.5 mph - N/A   Unknown
7:35 AM 10.4 °F -2.4 °F 3.2 °F 73% 30.29 in 4.0 mi North 9.2 mph - N/A   Overcast
7:55 AM 10.4 °F -1.5 °F 3.2 °F 73% 30.31 in 1.8 mi North 8.1 mph - N/A   Overcast
8:15 AM 10.4 °F -1.5 °F 5.0 °F 79% 30.31 in 6.0 mi North 8.1 mph - N/A   Overcast
8:35 AM 12.2 °F -1.0 °F 5.0 °F 73% 30.31 in 10.0 mi North 10.4 mph - N/A   Overcast
8:55 AM 12.2 °F -2.5 °F 5.0 °F 73% 30.32 in 10.0 mi North 12.7 mph - N/A   Overcast
9:15 AM 12.2 °F -2.5 °F 3.2 °F 67% 30.32 in 9.0 mi North 12.7 mph - N/A   Overcast
9:35 AM 12.2 °F -1.8 °F 3.2 °F 67% 30.33 in 10.0 mi North 11.5 mph - N/A   Mostly Cloudy
9:55 AM 12.2 °F -1.8 °F 3.2 °F 67% 30.33 in 10.0 mi North 11.5 mph - N/A   Partly Cloudy
10:15 AM 12.2 °F -0.2 °F 3.2 °F 67% 30.33 in 10.0 mi NNE 9.2 mph - N/A   Clear
10:35 AM 14.0 °F 3.9 °F 3.2 °F 62% 30.33 in 10.0 mi NNE 6.9 mph - N/A   Clear
10:55 AM 14.0 °F 5.1 °F 3.2 °F 62% 30.33 in 5.0 mi North 5.8 mph - N/A   Mostly Cloudy
11:15 AM 14.0 °F 3.9 °F 5.0 °F 67% 30.33 in 3.0 mi North 6.9 mph - N/A   Overcast
11:35 AM 14.0 °F 1.2 °F 6.8 °F 73% 30.31 in 9.0 mi North 10.4 mph - N/A   Mostly Cloudy
11:55 AM 14.0 °F 3.9 °F 5.0 °F 67% 30.30 in 10.0 mi North 6.9 mph - N/A   Mostly Cloudy
12:15 PM 15.8 °F 3.4 °F 3.2 °F 58% 30.29 in 10.0 mi North 10.4 mph - N/A   Partly Cloudy
12:35 PM 15.8 °F 3.4 °F 3.2 °F 58% 30.28 in 10.0 mi NNW 10.4 mph - N/A   Clear
12:55 PM 15.8 °F 4.2 °F 3.2 °F 58% 30.26 in 10.0 mi North 9.2 mph - N/A   Clear
1:15 PM 15.8 °F 3.4 °F 1.4 °F 53% 30.27 in 10.0 mi NNW 10.4 mph - N/A   Clear
1:35 PM 17.6 °F 5.0 °F 1.4 °F 49% 30.26 in 10.0 mi North 11.5 mph - N/A   Clear
1:55 PM 15.8 °F 2.1 °F 1.4 °F 53% 30.26 in 10.0 mi NNW 12.7 mph - N/A   Clear
2:15 PM 15.8 °F 3.4 °F 1.4 °F 53% 30.26 in 10.0 mi North 10.4 mph - N/A   Scattered Clouds
2:35 PM 15.8 °F 1.4 °F -0.4 °F 49% 30.26 in 10.0 mi North 13.8 mph - N/A   Partly Cloudy
2:55 PM 15.8 °F 2.7 °F -0.4 °F 49% 30.25 in 10.0 mi NNW 11.5 mph - N/A   Clear
3:15 PM 15.8 °F 2.1 °F -0.4 °F 49% 30.26 in 10.0 mi North 12.7 mph - N/A   Partly Cloudy
3:35 PM 15.8 °F 2.7 °F -0.4 °F 49% 30.27 in 10.0 mi North 11.5 mph - N/A   Partly Cloudy
3:55 PM 15.8 °F 2.7 °F -2.2 °F 45% 30.28 in 10.0 mi North 11.5 mph - N/A   Clear
4:15 PM 14.0 °F 0.5 °F -2.2 °F 49% 30.27 in 10.0 mi North 11.5 mph - N/A   Clear
4:35 PM 14.0 °F 1.2 °F -2.2 °F 49% 30.26 in 10.0 mi North 10.4 mph - N/A   Clear
4:55 PM 12.2 °F -0.2 °F -2.2 °F 53% 30.26 in 10.0 mi North 9.2 mph - N/A   Clear
5:15 PM 12.2 °F -0.2 °F -2.2 °F 53% 30.26 in 10.0 mi North 9.2 mph - N/A   Clear
5:35 PM 12.2 °F 0.7 °F -2.2 °F 53% 30.27 in 10.0 mi North 8.1 mph - N/A   Partly Cloudy
5:55 PM 12.2 °F -0.2 °F -2.2 °F 53% 30.27 in 10.0 mi NNW 9.2 mph - N/A   Scattered Clouds
6:15 PM 12.2 °F -1.0 °F -2.2 °F 53% 30.27 in 10.0 mi North 10.4 mph - N/A   Mostly Cloudy
6:35 PM 12.2 °F -1.0 °F -2.2 °F 53% 30.27 in 10.0 mi North 10.4 mph - N/A   Partly Cloudy
6:55 PM 10.4 °F -2.4 °F -2.2 °F 57% 30.28 in 10.0 mi North 9.2 mph - N/A   Clear
7:15 PM 10.4 °F 0.8 °F -2.2 °F 57% 30.28 in 10.0 mi North 5.8 mph - N/A   Clear
7:35 PM 8.6 °F -1.3 °F -2.2 °F 62% 30.29 in 10.0 mi North 5.8 mph - N/A   Clear
7:55 PM 8.6 °F 2.0 °F -2.2 °F 62% 30.30 in 10.0 mi North 3.5 mph - N/A   Clear
8:15 PM 8.6 °F 0.1 °F -2.2 °F 62% 30.30 in 10.0 mi North 4.6 mph - N/A   Clear
8:35 PM 8.6 °F 0.1 °F -2.2 °F 62% 30.31 in 10.0 mi NNW 4.6 mph - N/A   Clear
8:55 PM 8.6 °F 2.0 °F -2.2 °F 62% 30.31 in 10.0 mi NNW 3.5 mph - N/A   Clear
9:15 PM 8.6 °F - -2.2 °F 62% 30.32 in 10.0 mi Calm Calm - N/A   Clear
9:35 PM 6.8 °F -0.1 °F -2.2 °F 67% 30.33 in 10.0 mi NNW 3.5 mph - N/A   Clear
9:55 PM 6.8 °F -2.0 °F -2.2 °F 67% 30.33 in 10.0 mi NNW 4.6 mph - N/A   Clear
10:15 PM 6.8 °F -0.1 °F -2.2 °F 67% 30.33 in 10.0 mi NNW 3.5 mph - N/A   Clear
10:35 PM 6.8 °F -0.1 °F -0.4 °F 72% 30.33 in 10.0 mi North 3.5 mph - N/A   Clear
10:55 PM 6.8 °F -0.1 °F -2.2 °F 67% 30.33 in 10.0 mi North 3.5 mph - N/A   Clear
11:15 PM 6.8 °F -0.1 °F -2.2 °F 67% 30.33 in 10.0 mi NNW 3.5 mph - N/A   Clear
11:35 PM 6.8 °F -0.1 °F -2.2 °F 67% 30.32 in 10.0 mi NNW 3.5 mph - N/A   Clear
11:55 PM 6.8 °F -2.0 °F -2.2 °F 67% 30.33 in 10.0 mi NNW 4.6 mph - N/A   Clear